Regional Weather Roundup
Issued by NWS

Home | Current Version | Previous Version | Graphics & Text | Print | Product List | Glossary On
Versions: 1 2 3 4 5 6 7 8 9 10 11 12 13 14 15 16 17 18 19 20 21 22 23 24 25 26 27 28 29 30 31 32 33 34 35 36 37 38 39 40 41 42 43 44 45 46 47 48 49 50
000
ASUS43 KFSD 201102
RWRSD

WEATHER ROUNDUP FOR SOUTH DAKOTA
NATIONAL WEATHER SERVICE SIOUX FALLS SD
500 AM CST SAT DEC 20 2014

NOTE: "FAIR" INDICATES FEW OR NO CLOUDS BELOW 12,000 FEET WITH NO
SIGNIFICANT WEATHER AND/OR OBSTRUCTIONS TO VISIBILITY.


SDZ001>005-009-010-012>017-201200-
NORTHWEST AND NORTH CENTRAL SOUTH DAKOTA

CITY           SKY/WX    TMP DP  RH WIND       PRES   REMARKS
BUFFALO          N/A     33  22  63 S5        29.80S WCI  29
FAITH            N/A     26  22  84 SW7       29.89S WCI  18
MOBRIDGE       CLEAR     18  15  88 SE6       29.91S WCI  10
$$

SDZ012>016-024>037-041>051-057-063-072>074-201200-
SOUTHWEST AND SOUTH CENTRAL SOUTH DAKOTA

CITY           SKY/WX    TMP DP  RH WIND       PRES   REMARKS
RAPID CTY ARPT CLOUDY    31  22  69 NW8       29.88F WCI  23
PIERRE         FOG       19  15  84 CALM      29.95S VSB<1/4
CUSTER         CLOUDY    31  17  56 W5        29.88F WCI  26
ELLSWORTH AFB  CLOUDY    29  23  78 NW3       29.87F
PHILIP         CLEAR     20  16  84 W9        29.93S WCI   9
PINE RIDGE     CLEAR     20  15  81 W7        29.92F WCI  11
WINNER         FAIR      26  17  68 CALM      29.96F
$$

SDZ004>011-016>023-039-040-201200-
NORTHEAST SOUTH DAKOTA

CITY           SKY/WX    TMP DP  RH WIND       PRES   REMARKS
ABERDEEN       CLOUDY    27  26  96 S9        30.00F FOG     WCI  18
WATERTOWN      CLOUDY    28  27  96 S9        30.00F FOG     WCI  19
SISSETON         N/A     30  28  92 SW8       30.02F WCI  22
$$

SDZ017-020-022-023-036>040-048>070-201200-
SOUTHEAST SOUTH DAKOTA

CITY           SKY/WX    TMP DP  RH WIND       PRES   REMARKS
SIOUX FALLS    CLOUDY    31  29  92 S7        30.05F WCI  24
HURON          FOG       26  25  96 S7        30.02F VSB 1/2 WCI  18
MITCHELL       FOG       26  25  96 S8        30.04F VSB 1/2 WCI  18
YANKTON        CLOUDY    30  28  93 CALM      30.06S
$$

ABBREVIATIONS USED IN REMARKS
   TC - TEMPERATURE IN CELSIUS
  WCI - WIND CHILL INDEX
   HX - HEAT INDEX
  VSB - VISIBILITY



USA.gov is the U.S. government's official web portal to all federal, state and local government web resources and services.